Location: Champignolles
(47.0543°N, 4.5663°E)
Time: 15:05:27
(UTC+00:00)

Cosmos 2369 Rocket - Pass Details

Date: 30 November 2020
Orbit: 829 x 852 km, 71.0° (Epoch: 27 January)

Event Time Altitude Azimuth Distance (km) Brightness Sun altitude
Rises 16:21:58 0° 338° (NNW) 3,426 5.3 -4.9°
Reaches altitude 10° 16:24:49 10° 350° (N) 2,484 4.5 -5.3°
Maximum altitude 16:29:37 27° 48° (NE) 1,573 3.1 -6.0°
Drops below altitude 10° 16:34:23 10° 105° (ESE) 2,461 4.2 -6.8°
Sets 16:37:11 0° 118° (ESE) 3,388 5.0 -7.2°
